GEFSSGP_500_meanwind_204.txt.gz
Wind_Speed
6 6 6 7 7 7 7 8 7 6 5 4 4 3 4 4 4 3 2 2 2 2 1 2 1 0 1 2 2 3 4 4 4 3 4 4 4 4 5 5 5 5 4 4 4 4 4 4 3
7 7 7 7 7 7 7 7 7 6 6 5 4 4 4 5 5 4 3 2 2 2 2 2 2 1 1 1 2 2 3 3 3 3 4 4 4 4 5 5 5 5 4 4 5 5 4 4 3
8 8 8 7 7 7 7 8 7 6 6 6 5 4 4 4 5 4 4 3 2 2 3 3 2 1 1 1 1 1 2 2 2 3 3 4 3 4 5 5 4 4 4 4 5 5 4 3 4
8 9 8 8 8 7 7 8 7 6 6 6 6 5 5 4 4 4 4 4 3 4 4 4 3 2 2 1 0 1 2 2 2 3 3 3 4 4 5 5 4 4 4 4 5 4 3 3 4
9 9 9 9 8 8 7 7 7 7 6 6 6 6 6 5 5 5 4 4 4 4 4 3 2 2 2 1 0 0 1 2 3 2 3 3 4 4 4 4 4 4 4 5 5 4 3 3 3
8 9 9 9 8 7 8 9 8 7 7 6 7 6 6 5 5 5 4 4 4 4 4 3 2 2 2 1 1 1 1 2 2 2 2 2 3 4 3 3 3 4 4 5 4 4 4 3 3
8 8 8 8 8 7 8 9 9 8 8 7 7 7 6 6 6 6 5 4 4 5 4 4 4 3 3 3 3 2 2 2 2 2 1 2 3 3 3 3 3 3 3 4 4 4 4 3 4
8 8 8 8 8 7 8 9 8 8 8 7 7 7 7 6 6 6 5 5 4 5 5 5 4 4 3 3 3 3 2 2 2 2 1 2 2 3 3 3 3 3 4 4 4 4 4 3 3
8 8 8 9 8 8 8 9 8 8 8 8 7 7 7 6 6 6 6 6 5 5 5 5 5 4 4 3 3 3 3 3 2 2 2 2 2 2 2 3 3 3 4 4 4 4 4 4 3
8 8 9 9 10 9 9 9 8 8 8 8 8 7 8 7 6 7 6 6 5 5 5 6 5 5 4 4 4 4 4 3 3 3 2 3 3 3 3 2 3 3 4 4 4 4 4 4 4
8 8 8 9 9 9 9 9 8 8 8 8 8 8 8 7 7 7 7 7 6 6 6 6 5 5 5 5 5 5 4 4 3 3 3 3 3 3 3 3 3 3 3 3 4 4 4 4 4
8 9 9 9 9 8 9 8 8 8 8 8 8 8 7 7 7 7 8 7 7 7 6 6 6 6 5 5 5 5 5 4 4 3 3 3 3 4 3 3 3 3 3 3 3 4 4 4 4
8 9 9 9 9 8 8 9 8 8 8 8 8 8 8 8 8 8 8 8 8 8 8 7 6 6 5 5 5 5 5 5 4 4 3 3 3 3 3 2 3 3 3 2 3 3 3 4 4
9 9 9 9 9 8 8 8 7 7 8 8 8 8 8 8 8 8 8 8 8 9 8 8 6 6 5 5 5 5 5 5 5 4 3 3 3 3 3 2 3 3 2 2 3 3 3 4 4
9 10 10 10 10 9 9 8 8 8 8 8 9 9 9 8 8 8 8 8 9 9 9 8 7 7 6 5 5 5 5 5 5 4 4 3 3 3 3 3 3 3 3 3 3 4 4 4 4
9 9 9 10 10 10 9 8 9 9 9 9 9 9 9 9 9 8 8 8 9 9 8 8 7 6 6 5 5 5 5 4 4 4 3 3 3 3 3 3 3 3 3 3 3 4 4 4 4
10 9 8 9 10 10 10 10 10 10 9 9 9 9 9 9 9 9 8 8 8 8 8 8 7 6 6 5 5 5 5 4 4 4 3 3 3 3 3 3 3 3 3 3 3 3 3 3 3
10 10 9 9 9 10 10 10 10 9 9 9 9 10 10 9 9 9 9 9 9 9 8 8 7 7 6 6 6 6 6 5 4 4 3 3 3 3 3 3 3 3 3 3 3 3 3 3 3
10 10 10 10 10 10 10 10 11 10 10 10 10 10 10 10 10 10 10 9 9 9 8 8 7 7 6 6 6 6 6 6 5 4 4 4 3 3 3 3 3 3 3 3 3 3 3 3 3
11 10 11 11 11 11 10 10 11 11 10 10 11 11 11 11 11 11 10 10 10 9 9 8 8 7 7 6 6 7 7 7 6 5 5 5 4 4 4 4 4 4 4 3 4 4 3 3 3
10 10 10 10 10 11 10 10 11 11 11 11 11 11 11 11 11 11 11 11 11 10 10 9 9 9 8 8 7 7 7 7 7 6 6 5 5 4 4 5 5 5 4 4 4 4 4 4 4
10 10 10 10 10 10 10 10 10 11 11 11 11 11 12 12 12 11 11 11 11 11 10 10 10 10 9 9 8 8 8 7 7 7 6 6 5 5 5 5 5 5 5 5 5 4 4 4 5
10 10 11 10 11 11 11 11 11 11 11 11 11 12 12 13 13 13 12 12 12 12 11 10 10 10 10 9 9 9 9 8 7 7 7 7 6 6 5 6 6 6 6 6 6 5 5 5 5
11 11 11 11 10 10 10 11 11 12 12 11 11 12 13 14 14 13 13 13 13 13 12 12 11 11 11 10 9 9 9 9 8 8 7 7 7 7 6 6 6 6 6 6 6 6 6 6 5
12 12 12 12 11 10 9 10 10 11 11 11 11 11 12 13 14 14 14 14 14 14 13 13 12 12 11 10 10 10 10 10 9 9 9 8 8 8 7 7 7 7 7 6 6 7 6 6 6
11 12 13 12 12 11 11 10 10 10 10 11 12 12 12 13 13 14 15 14 14 14 14 14 13 13 12 12 11 11 11 10 10 10 9 9 10 9 9 8 8 8 7 7 8 7 7 7 7
12 12 13 14 13 13 12 11 11 11 11 11 12 13 13 13 14 14 15 15 15 14 14 14 14 14 13 13 12 12 12 11 11 11 10 10 10 10 10 10 9 9 8 8 8 8 8 8 8
14 13 14 14 14 13 13 12 11 11 11 11 11 13 13 13 13 13 14 15 15 15 15 15 14 14 14 13 13 13 13 12 12 12 11 11 11 11 11 11 10 10 10 10 9 9 9 9 9
15 15 14 15 15 15 14 12 12 12 12 11 11 12 13 13 14 14 15 15 15 16 16 16 15 14 14 14 14 14 14 13 13 13 12 12 12 12 12 11 11 11 11 11 11 11 10 10 10
15 14 15 15 14 15 15 13 13 12 12 12 12 12 13 14 14 14 15 15 16 16 16 16 15 15 15 14 14 14 14 14 13 13 13 12 12 12 12 12 12 12 12 12 12 12 12 12 12

GEFSSGP_500_meanwind_210.txt.gz
Wind_Speed
5 5 6 6 7 7 8 7 7 6 6 5 5 5 5 6 5 5 5 5 5 4 3 3 2 2 2 2 1 1 1 1 2 2 2 2 2 2 2 2 2 2 1 1 1 1 1 1 2
6 6 6 7 7 8 8 8 8 7 7 6 5 5 5 6 6 6 5 5 5 4 4 4 3 3 2 1 1 1 1 1 1 1 2 1 1 1 1 2 2 1 1 1 1 2 1 1 2
7 7 7 7 7 8 9 9 9 8 7 7 7 6 5 5 6 6 5 5 5 4 4 4 3 3 3 2 1 1 1 1 1 1 1 1 1 1 2 2 2 1 1 1 1 1 1 2 2
7 7 7 7 8 8 8 9 9 8 8 8 7 7 5 5 6 5 5 5 5 4 4 4 4 4 3 3 2 2 1 1 1 1 1 2 1 1 2 1 1 1 1 1 1 1 2 2 2
8 8 8 8 8 8 8 9 9 9 8 8 8 7 6 6 7 6 5 5 5 5 5 4 5 4 4 3 3 3 1 1 1 1 1 2 2 1 1 1 1 1 1 2 2 2 1 2 2
8 8 8 8 8 8 8 9 9 9 9 8 8 8 7 7 7 7 6 5 5 5 5 5 4 4 4 4 3 2 2 1 1 2 2 2 2 2 1 1 1 1 1 2 2 1 1 2 2
7 8 8 8 8 8 8 9 9 10 9 9 9 8 9 9 8 7 6 6 6 6 6 5 5 4 5 4 3 3 3 3 3 3 3 3 3 2 1 1 1 1 1 2 2 2 3 3 3
8 7 7 8 8 8 9 9 9 10 9 9 9 9 9 9 8 8 7 7 6 6 7 6 6 6 5 5 4 4 4 4 4 3 3 4 3 2 2 1 1 1 1 2 2 2 3 3 3
8 8 8 8 8 8 8 9 9 9 9 9 9 9 8 9 9 8 8 7 7 6 7 7 7 6 6 6 6 5 5 5 4 4 4 4 3 2 2 2 1 1 2 2 2 2 3 3 2
8 9 9 9 8 8 8 8 9 10 10 9 9 9 9 9 9 9 8 8 7 7 7 8 7 7 7 7 6 6 6 6 5 4 4 3 2 2 2 1 1 1 2 2 3 3 3 3 3
9 9 9 9 9 9 8 8 9 9 9 9 9 10 10 9 9 9 9 9 9 8 8 8 8 8 8 7 7 6 6 6 5 4 4 3 3 2 2 2 2 2 2 2 3 3 3 3 3
9 9 10 10 10 9 9 9 9 9 9 9 9 10 10 10 10 9 9 9 9 8 8 8 8 8 8 8 7 6 6 6 5 5 4 4 4 3 3 2 2 2 2 2 2 3 3 3 2
9 9 10 10 10 10 9 9 9 9 10 9 9 10 9 9 10 10 10 10 10 9 9 9 9 9 8 8 7 7 6 6 6 5 5 4 4 3 3 3 3 2 2 2 2 3 3 2 2
9 9 9 9 9 9 9 9 9 10 10 10 10 10 10 10 11 11 10 11 11 10 10 9 9 9 8 8 7 7 7 6 6 6 5 5 5 4 4 4 3 3 3 2 3 3 3 3 3
9 9 8 9 9 10 9 10 10 10 10 10 10 11 10 10 10 10 10 10 10 10 10 9 9 9 9 8 8 7 6 6 6 5 5 4 5 4 4 3 3 3 3 3 3 3 4 3 3
9 9 8 9 10 10 10 11 11 10 10 9 9 10 10 10 10 10 10 10 10 10 10 9 9 9 8 8 8 7 6 6 5 5 5 4 4 4 4 3 3 3 3 3 3 3 3 3 3
10 9 10 10 10 10 10 11 11 10 10 10 10 10 10 10 11 11 10 10 10 10 9 10 10 9 8 8 7 7 6 5 5 5 5 4 4 4 3 3 3 3 3 3 3 3 3 3 3
10 10 11 10 10 10 10 11 10 10 11 11 10 10 10 11 11 11 10 10 10 10 10 10 10 9 8 8 7 7 6 6 5 5 5 4 4 4 4 4 4 4 4 4 4 3 3 3 3
10 11 11 11 10 10 11 11 11 10 11 11 10 10 10 11 11 11 11 10 10 10 10 10 10 9 9 8 8 7 7 6 6 6 5 4 4 4 4 4 4 4 4 4 4 3 3 3 3
10 11 10 11 11 11 10 11 11 11 11 10 10 10 11 11 11 11 11 11 10 10 10 10 10 10 9 9 8 8 7 7 6 6 6 5 5 5 4 4 4 4 4 4 4 4 4 4 4
11 11 10 10 11 11 11 11 11 11 11 11 10 10 10 11 11 11 11 12 11 11 11 10 10 10 10 10 9 8 8 7 7 7 6 6 5 5 4 4 4 4 4 4 4 4 5 5 4
11 11 11 10 11 11 11 11 11 11 11 11 11 10 11 11 11 11 12 12 12 12 12 12 11 11 10 10 10 9 8 8 7 7 6 6 5 5 5 4 5 5 4 5 5 5 5 5 5
11 11 10 10 11 11 11 11 10 10 10 10 11 11 11 12 12 12 12 12 12 13 12 12 11 11 11 11 11 10 10 9 8 8 7 6 5 6 6 6 6 5 5 5 5 5 5 5 5
11 11 11 11 11 12 11 11 11 11 10 10 11 11 12 13 13 12 12 12 12 13 13 13 12 12 12 12 12 12 11 11 10 9 8 8 7 7 7 7 6 6 6 6 5 5 6 6 6
11 11 11 11 12 12 11 12 11 11 11 10 11 11 13 13 13 13 13 13 13 13 13 13 13 13 13 12 12 12 12 12 11 10 10 9 9 9 8 8 7 7 7 7 6 5 6 6 6
12 12 12 12 12 12 12 12 11 11 11 11 11 12 13 13 13 13 14 13 14 14 14 14 14 14 14 13 12 12 12 12 12 11 11 10 10 10 10 10 9 9 8 8 8 7 7 7 7
13 13 13 13 13 13 13 12 12 11 11 12 12 12 13 13 14 14 14 15 15 15 15 15 15 15 15 14 13 13 13 13 13 12 11 11 10 10 11 11 10 9 9 9 9 8 8 8 8
14 14 14 14 14 14 14 13 13 13 12 12 13 13 13 13 13 14 15 15 15 15 15 16 16 16 15 15 14 13 13 13 13 13 12 12 11 12 11 11 11 11 10 10 10 10 9 9 9
15 15 15 14 15 14 14 14 13 13 13 13 14 14 14 13 14 14 15 15 15 16 16 15 16 16 16 15 15 14 14 14 14 13 13 13 13 13 12 12 12 12 11 11 11 11 11 10 10
16 16 15 15 15 15 14 14 13 13 13 13 14 14 14 14 14 15 15 15 15 16 16 16 16 16 16 16 16 16 15 15 15 14 14 14 14 14 14 14 13 13 12 11 11 11 11 11 12

GEFSSGP_500_meanwind_216.txt.gz
Wind_Speed
5 6 6 6 7 6 6 7 6 5 5 5 5 5 5 4 4 4 3 3 3 3 3 4 3 2 2 2 2 2 2 2 2 1 1 1 2 2 2 2 1 2 2 1 1 0 1 1 2
5 6 6 7 6 7 7 7 7 7 6 6 6 6 5 5 5 4 4 4 4 4 4 4 4 3 3 3 2 3 3 3 3 2 1 1 2 2 2 2 2 2 2 2 1 1 1 1 2
6 6 7 7 7 8 8 7 7 7 7 7 7 6 6 5 5 5 5 5 5 4 5 5 4 4 4 3 3 3 3 3 3 3 2 2 3 3 3 2 3 2 2 2 2 2 2 1 2
7 7 7 7 8 8 8 7 7 7 7 7 7 6 6 6 5 6 6 6 5 5 5 5 5 5 5 4 3 3 3 3 3 3 3 3 3 3 3 3 3 3 2 2 3 3 3 2 3
7 7 7 8 8 8 8 8 8 8 8 8 7 6 6 6 5 6 6 6 5 5 5 6 5 5 4 4 4 4 4 3 4 4 4 4 4 4 4 3 3 3 3 2 3 4 4 4 3
8 8 8 8 8 8 8 8 8 8 9 8 7 8 6 6 6 6 6 6 6 6 6 6 5 5 5 5 4 4 4 5 4 4 4 4 4 4 4 3 3 3 3 2 3 4 5 4 2
9 8 8 9 9 8 8 8 9 8 8 8 8 8 7 7 7 6 7 7 7 7 7 7 6 6 5 5 4 4 4 4 5 5 5 5 4 4 4 4 3 3 3 3 3 4 4 4 3
8 9 9 9 9 9 9 8 9 8 8 8 8 8 8 8 8 7 7 7 7 8 7 7 7 6 5 5 5 5 5 5 6 6 6 6 5 5 4 4 3 3 3 3 3 4 4 4 4
10 9 10 10 9 9 9 9 9 9 9 9 8 9 9 9 8 8 8 8 7 7 7 7 7 7 6 6 6 6 6 6 6 6 6 6 5 4 4 3 3 3 2 3 3 4 4 4 4
10 9 10 10 10 10 9 9 8 8 9 9 9 9 9 9 8 8 8 8 8 7 7 7 7 7 6 6 6 6 7 7 6 6 6 6 5 4 4 3 3 3 3 3 4 4 4 4 4
10 10 10 10 10 9 10 9 9 9 9 9 9 9 9 9 9 8 9 8 8 8 7 8 7 7 7 7 7 7 7 6 6 6 7 6 6 5 4 3 3 3 4 4 4 4 4 4 4
10 10 10 10 9 9 10 9 10 10 9 9 9 9 10 10 11 10 10 9 9 8 8 8 8 8 8 7 7 7 7 7 6 6 5 5 5 4 4 3 3 4 4 4 4 5 5 4 4
10 10 10 10 10 9 10 10 10 10 10 10 9 9 10 10 11 10 10 10 9 9 9 8 8 8 9 8 8 8 8 7 6 6 5 6 6 6 5 4 4 4 5 5 5 5 5 5 5
10 10 10 10 10 10 10 10 10 10 10 10 10 10 10 10 10 10 10 10 10 10 10 9 9 8 8 8 8 8 7 7 6 6 5 6 6 6 5 5 5 5 5 5 6 5 5 5 5
9 9 9 9 10 10 10 10 10 10 10 10 10 10 10 10 10 10 11 11 11 11 10 10 9 9 9 9 8 8 8 7 7 6 6 6 6 5 5 5 4 4 5 5 5 5 5 5 5
8 9 9 9 9 10 11 10 10 10 10 10 10 10 11 10 10 10 11 11 10 10 10 10 9 9 9 9 8 8 7 7 7 7 6 6 6 5 5 5 4 5 5 5 5 5 4 4 4
8 9 9 9 9 10 11 10 10 10 11 10 11 11 11 10 10 10 10 10 10 10 10 10 10 9 9 9 8 8 7 7 7 7 7 6 6 6 6 5 5 5 5 6 5 4 4 4 4
8 10 10 10 10 11 11 11 10 10 11 12 11 11 11 11 11 10 10 10 10 10 10 9 9 9 9 9 8 8 7 7 7 7 6 6 6 6 6 6 5 5 5 5 5 5 5 5 5
9 10 11 10 10 10 11 11 10 10 11 11 12 12 11 11 11 11 10 10 10 10 9 9 9 9 9 9 8 7 7 6 7 6 5 5 5 5 6 5 5 5 5 5 5 5 5 5 5
10 11 12 11 11 11 11 12 12 11 11 11 11 12 12 12 11 11 11 10 10 10 10 9 10 9 9 9 8 7 7 7 7 6 6 5 5 6 6 5 5 5 5 5 5 5 5 5 5
11 11 11 11 12 12 12 12 12 12 12 12 12 12 12 12 11 11 11 10 10 10 10 9 10 10 9 9 8 8 8 7 7 7 7 6 6 6 6 5 5 5 5 5 5 5 5 5 6
13 11 10 10 12 11 12 12 12 12 12 12 12 12 12 11 11 11 11 11 11 11 11 10 10 10 10 9 9 8 8 8 8 8 7 7 7 6 6 5 5 5 5 6 6 6 6 6 6
12 11 10 11 12 12 12 13 13 13 12 12 13 13 13 12 11 11 11 11 11 11 11 11 11 11 10 10 10 9 10 10 9 8 8 8 8 7 7 6 6 6 6 6 6 7 7 7 7
12 12 12 11 12 12 11 13 14 13 13 12 13 13 13 13 12 12 12 11 12 12 12 11 11 11 11 11 11 11 11 11 10 9 9 9 8 8 8 7 7 7 7 7 7 7 7 7 7
13 12 12 11 11 13 12 14 15 13 13 13 13 13 14 13 13 13 12 12 12 12 12 12 12 12 12 12 12 12 12 11 11 10 10 9 9 9 9 9 8 8 7 7 7 7 7 7 7
14 13 12 11 11 14 14 15 15 14 14 14 13 13 13 13 13 13 13 13 13 13 13 13 13 13 13 13 13 12 12 12 12 11 11 11 10 10 10 9 9 9 9 9 8 8 8 8 9
14 15 14 14 13 13 14 15 15 14 15 14 14 13 13 13 13 13 13 13 13 13 13 13 14 14 14 14 14 13 13 13 12 12 12 12 12 11 11 10 10 10 10 10 9 10 10 9 9
15 14 14 14 14 13 14 15 14 14 15 14 14 14 14 14 13 13 14 14 14 13 14 13 14 15 15 15 15 14 13 13 13 13 13 13 12 12 11 11 11 11 11 11 11 11 10 10 10
16 16 15 15 16 15 14 15 15 15 16 15 15 15 14 14 14 14 14 14 14 14 14 14 15 15 15 15 16 16 15 14 14 14 14 13 13 13 13 13 12 12 12 12 12 11 11 12 12
17 17 17 17 16 16 17 17 16 16 16 16 16 15 15 15 15 15 15 14 14 15 15 14 15 15 15 15 16 16 16 16 15 15 15 14 14 14 14 14 13 13 13 13 13 12 13 13 13

GEFSSGP_500_meanwind_222.txt.gz
Wind_Speed
6 6 7 7 6 7 7 6 5 4 4 4 3 2 2 2 2 2 2 1 1 1 1 1 1 2 2 2 2 2 3 3 3 3 3 3 3 3 3 3 3 3 4 4 4 3 3 4 3
6 6 7 6 6 7 7 6 5 5 5 5 4 3 3 3 3 3 2 1 2 1 1 2 2 1 2 2 2 2 2 3 3 3 4 3 3 3 3 4 3 3 4 4 4 4 3 3 3
7 7 7 7 7 7 6 6 5 5 6 5 4 4 4 4 4 3 2 2 2 2 2 2 2 2 2 3 3 3 3 3 3 3 4 3 3 2 3 3 3 3 4 4 4 3 3 3 3
7 7 8 8 8 7 7 6 5 4 5 5 4 4 3 4 4 3 3 2 2 2 2 3 3 3 3 3 3 3 4 4 5 5 4 4 4 3 3 3 3 4 4 4 3 3 3 3 2
7 7 8 8 7 7 6 6 5 4 5 5 5 4 3 4 4 3 3 3 3 3 3 3 3 3 4 4 4 4 4 5 6 5 5 4 4 3 3 3 3 3 3 3 3 3 2 2 3
7 7 7 7 6 6 5 5 5 5 5 5 5 4 4 4 4 4 4 3 3 3 4 4 3 3 3 3 3 4 5 6 6 6 5 5 4 4 4 4 4 4 3 3 3 3 3 2 3
8 8 7 8 7 6 5 5 5 5 5 5 4 4 4 4 5 4 4 4 4 4 4 4 4 4 3 3 4 5 6 6 5 6 5 5 4 4 4 4 4 4 4 4 3 3 3 2 2
8 8 8 8 8 6 5 5 5 5 4 4 4 4 4 4 4 4 4 4 4 4 4 4 4 4 4 4 4 4 5 5 5 5 5 5 5 5 5 5 5 5 4 4 4 3 3 2 2
9 9 8 8 8 7 6 6 5 5 5 5 5 5 5 4 4 4 4 4 4 3 4 4 4 4 4 3 4 5 5 6 6 6 5 5 5 5 5 5 5 4 4 5 5 4 3 3 3
10 9 8 8 8 7 6 6 7 6 6 6 6 5 5 5 4 4 3 3 3 4 4 4 4 4 4 4 5 5 5 6 6 6 5 5 5 5 5 4 4 4 4 4 4 4 3 3 3
10 10 9 9 9 8 8 7 7 7 7 6 6 5 5 5 5 5 5 4 4 4 4 4 4 4 5 5 5 6 6 6 6 6 6 5 5 5 5 5 5 4 4 4 3 3 3 4 4
8 9 8 8 9 8 8 8 8 8 8 7 6 6 6 6 6 5 5 5 5 5 4 5 5 5 5 6 6 6 6 6 6 6 5 5 5 5 5 5 5 4 4 4 4 4 4 5 5
9 9 9 9 8 8 8 8 7 7 7 7 7 7 7 6 6 6 6 6 6 6 6 6 6 5 5 6 6 6 6 6 6 5 6 6 5 5 4 4 5 5 5 5 5 5 5 5 5
9 9 9 9 8 8 8 7 7 7 7 7 7 7 7 7 7 7 7 7 7 7 6 6 7 6 6 6 6 5 6 6 6 5 6 5 5 5 5 4 5 6 5 5 5 5 5 5 5
8 8 8 8 8 8 8 7 7 7 8 8 8 8 8 8 8 8 8 8 8 7 7 7 7 7 7 7 5 5 5 5 5 5 5 5 5 5 4 4 4 5 5 5 4 4 5 5 5
7 7 8 8 8 8 8 8 8 8 7 7 8 8 8 7 8 8 9 8 8 8 7 7 7 7 7 6 5 5 5 5 5 5 5 5 5 4 4 4 4 5 5 5 5 4 4 4 5
9 8 8 8 8 7 7 7 7 7 8 8 8 8 8 8 8 8 9 9 8 8 8 8 8 8 7 6 6 6 6 6 6 5 5 5 5 4 4 4 5 5 5 5 4 4 4 4 5
8 8 8 8 8 8 7 7 8 8 7 7 8 8 8 8 8 8 8 8 8 8 8 8 8 8 8 7 7 7 6 6 6 5 4 4 4 4 4 5 5 5 5 5 4 4 4 4 4
8 8 8 8 8 8 9 8 8 8 8 8 8 9 9 9 8 8 8 8 8 8 8 8 8 8 8 8 7 7 7 7 6 5 5 5 5 4 4 5 5 5 5 4 4 4 4 4 4
8 9 8 8 8 9 8 8 9 9 8 8 8 8 8 9 9 8 8 9 9 8 8 9 9 9 8 8 7 8 7 7 7 6 6 5 5 4 5 5 5 5 5 4 3 4 4 4 5
9 9 9 9 9 9 9 10 9 9 9 9 9 8 8 9 9 9 9 9 9 9 9 9 9 9 8 8 8 8 8 8 7 6 6 6 6 6 5 5 5 5 5 4 4 4 4 4 4
10 10 10 10 10 10 10 10 9 9 9 9 8 8 8 8 8 9 9 9 9 8 8 9 9 9 8 8 8 9 9 8 8 7 7 7 7 7 7 6 5 5 5 5 5 5 5 5 5
11 11 11 11 12 12 11 11 10 9 9 8 8 8 8 8 9 9 9 9 9 9 9 9 9 9 9 9 9 10 10 10 9 8 8 8 8 8 8 7 7 6 6 6 6 6 6 6 6
12 12 12 12 13 13 12 12 10 8 8 9 9 8 8 8 8 8 9 9 9 10 10 10 10 11 10 10 10 11 11 10 10 9 9 9 9 9 8 8 8 8 7 7 6 6 6 7 7
12 13 13 13 14 13 12 13 10 9 9 9 9 9 8 9 8 9 9 9 10 10 11 11 11 11 11 11 11 11 12 11 10 10 10 10 9 9 9 8 8 8 8 7 7 7 7 8 8
12 13 14 14 13 13 13 13 11 10 9 9 9 9 9 9 9 9 9 9 10 10 11 11 12 12 12 11 11 11 11 11 11 11 11 10 10 10 10 9 8 9 9 8 8 8 8 8 8
14 14 15 15 15 15 15 14 12 11 10 9 9 10 10 9 10 10 10 10 11 11 11 11 11 12 12 12 12 12 11 11 12 11 11 11 10 10 10 9 9 9 9 9 9 9 9 9 9
15 15 16 17 16 16 15 14 13 11 11 10 10 9 9 9 10 11 11 11 11 11 11 12 12 12 12 13 12 13 12 12 12 12 12 12 12 11 11 10 10 10 10 10 10 10 10 9 10
15 16 18 18 19 18 18 16 14 12 12 11 10 10 10 9 10 12 12 12 11 12 12 13 12 12 12 13 13 13 14 14 14 13 13 13 12 12 11 11 11 11 11 11 11 11 11 11 11
17 18 18 19 19 20 19 16 15 14 13 13 12 11 11 10 11 12 12 12 12 13 13 13 13 13 13 14 14 14 14 14 14 14 14 13 13 12 12 12 12 12 12 12 12 12 12 12 12

GEFSSGP_500_meanwind_228.txt.gz
Wind_Speed
6 6 6 6 6 5 5 5 4 3 3 3 3 2 1 1 1 1 1 0 1 2 2 3 3 4 4 4 4 4 5 5 5 4 4 4 4 4 3 3 4 4 4 4 5 5 4 5 5
6 6 6 6 6 6 5 5 5 4 4 4 3 2 2 1 1 1 1 1 1 1 2 3 4 4 3 3 3 4 4 4 5 5 4 4 4 4 3 4 4 4 3 4 4 4 4 4 5
5 6 5 5 6 6 5 5 5 5 4 5 4 2 2 1 1 1 1 1 1 2 3 3 4 4 3 3 2 3 4 4 5 5 5 5 5 3 3 3 3 3 3 3 4 4 4 4 4
5 5 5 5 5 5 5 5 5 5 5 5 4 4 2 2 2 2 2 2 2 3 3 4 4 4 4 3 3 3 4 4 4 5 6 5 4 4 3 4 4 4 4 4 4 5 5 5 4
6 6 6 5 5 5 5 5 5 5 5 5 4 4 3 3 3 3 2 2 2 2 3 4 4 4 4 3 3 4 5 4 4 5 6 5 5 4 4 5 4 4 4 4 5 5 5 5 5
6 6 7 6 6 5 5 5 6 5 5 4 4 4 4 3 3 3 3 2 3 3 3 3 3 4 4 3 4 4 5 5 5 6 6 5 5 5 5 5 5 5 5 5 5 6 5 5 5
7 7 7 7 6 5 5 5 5 6 5 5 5 5 4 4 4 4 4 4 4 4 3 3 3 3 3 4 4 5 5 5 5 6 6 6 5 5 6 5 6 6 5 5 6 6 5 5 4
8 7 7 7 7 6 6 5 5 5 5 4 5 5 5 4 5 5 5 5 5 4 4 3 3 3 3 4 4 5 5 5 5 6 5 6 5 5 5 6 6 6 6 5 5 5 4 4 4
8 8 8 8 8 7 6 6 6 5 5 4 4 5 5 5 5 5 4 4 4 4 4 3 3 3 4 4 5 5 5 5 6 6 6 5 5 5 6 6 6 5 5 5 5 5 4 5 5
9 9 8 8 8 7 7 6 7 7 6 5 5 5 5 5 5 5 4 4 3 4 3 3 3 4 4 5 5 5 5 5 6 6 6 6 6 6 6 6 6 5 5 5 5 5 5 5 5
9 9 8 8 8 8 7 7 7 7 6 6 6 5 6 6 6 6 6 5 4 4 4 4 4 4 5 5 5 6 6 6 6 6 6 6 6 6 6 6 6 5 5 5 5 5 5 6 5
8 9 9 8 9 9 9 8 7 7 7 7 7 6 6 7 8 7 7 6 5 5 4 5 5 5 5 5 5 6 6 6 6 6 7 7 6 6 7 6 6 6 6 6 6 6 6 7 6
8 8 9 9 9 9 9 9 8 7 7 8 8 7 7 7 7 7 7 7 6 6 6 5 6 5 6 6 6 6 6 7 7 7 7 7 7 7 7 7 6 7 7 7 7 8 7 7 6
8 9 9 9 8 8 9 9 9 8 8 8 8 8 8 8 7 7 7 8 7 7 6 6 6 6 6 6 6 6 6 6 7 6 6 7 7 7 6 7 7 6 6 7 7 7 7 7 6
8 9 8 8 8 8 8 9 9 9 8 8 8 9 9 9 8 8 8 8 8 7 7 7 7 6 6 6 6 6 6 6 6 6 6 7 7 7 7 7 6 7 7 7 7 7 7 7 6
8 8 8 8 8 7 7 7 8 9 8 8 8 9 9 9 9 9 9 9 8 8 8 8 8 7 7 7 6 6 6 7 7 6 6 6 6 7 6 6 6 7 7 6 6 6 6 6 5
8 8 8 8 8 8 8 8 8 9 8 8 8 9 9 9 9 9 9 9 9 9 8 8 8 8 8 8 7 7 7 7 7 7 7 6 6 5 5 6 6 6 5 5 6 6 5 5 5
8 8 8 8 9 10 10 9 9 9 9 9 9 9 9 9 9 9 10 10 10 10 9 9 9 9 9 9 8 8 8 8 7 7 7 6 6 6 6 6 5 5 5 5 6 6 5 4 4
9 8 8 9 9 10 10 10 10 10 10 9 9 10 10 10 10 10 10 10 11 10 10 9 10 10 10 10 10 10 9 9 8 7 7 6 6 6 6 6 6 6 5 5 5 5 5 5 4
10 9 9 10 10 11 11 11 11 11 11 11 10 10 10 10 10 10 10 10 10 10 10 10 11 11 11 10 10 10 10 10 9 8 8 7 7 7 7 6 6 6 6 5 5 5 5 5 5
10 10 10 11 11 11 11 12 11 12 12 11 11 11 11 11 11 11 10 11 11 11 11 11 11 11 11 10 10 10 10 10 10 8 8 8 8 7 7 7 7 6 6 6 5 5 5 5 5
11 11 11 12 12 12 11 12 11 11 12 12 12 12 11 12 12 11 11 11 11 11 11 11 11 12 12 11 11 11 11 10 10 9 9 8 8 8 8 8 7 7 6 6 5 5 5 5 5
12 13 13 13 13 12 11 12 11 11 12 12 12 11 11 12 12 11 11 11 11 11 12 12 12 12 12 12 12 12 12 11 11 10 10 9 9 9 9 8 8 8 7 6 6 6 6 5 5
14 14 14 14 14 13 12 13 12 11 12 12 12 12 11 12 12 11 11 11 11 11 12 12 12 12 12 12 12 12 12 11 11 11 11 10 10 10 10 9 9 8 8 7 7 7 6 7 7
14 14 15 14 14 14 13 14 13 12 13 13 13 12 12 12 12 12 12 11 11 11 11 11 12 12 12 12 12 11 11 11 11 12 11 11 11 10 10 10 9 8 8 8 8 8 8 8 8
14 15 15 15 15 14 14 14 13 13 13 13 13 13 14 14 13 13 13 12 12 12 11 11 12 12 11 11 11 11 11 12 12 12 12 11 11 11 10 9 9 9 9 9 9 9 9 9 9
15 15 15 15 15 15 15 14 13 13 13 13 14 14 14 14 14 14 13 13 13 13 13 13 13 13 11 11 11 11 12 12 11 11 12 12 11 11 10 10 11 10 10 9 9 9 10 10 10
16 16 16 16 16 16 15 14 13 14 14 14 14 14 15 15 15 14 14 14 13 14 14 13 13 13 13 12 12 12 12 12 11 11 12 12 12 11 11 11 11 11 11 11 10 10 11 11 11
17 17 17 17 18 18 17 15 14 14 15 15 15 15 15 14 15 15 15 15 15 15 15 14 14 13 13 13 12 12 12 12 12 12 12 12 12 11 11 11 12 12 12 12 11 11 11 12 12
17 18 19 19 19 19 19 17 16 16 16 15 15 15 15 15 15 16 16 16 15 15 15 15 15 14 14 14 13 13 12 13 13 12 12 13 13 13 13 13 13 13 13 13 13 12 12 12 12

GEFSSGP_500_meanwind_234.txt.gz
Wind_Speed
6 5 5 6 5 5 5 4 4 4 4 4 4 4 4 4 4 3 2 2 1 1 0 0 1 2 1 1 1 2 2 2 2 2 1 1 1 0 1 1 1 1 1 1 1 2 3 4 4
5 5 5 5 5 5 5 5 5 5 4 4 5 4 4 4 4 3 2 2 2 1 1 1 2 3 2 2 2 2 2 1 1 1 1 1 1 0 1 1 1 0 1 2 2 2 3 3 3
5 4 4 5 5 5 5 5 5 5 4 4 5 5 4 5 4 3 3 2 2 2 2 2 3 3 3 3 3 3 2 1 1 1 1 1 1 1 1 2 1 1 2 2 2 2 3 2 1
5 4 4 4 4 5 5 5 5 5 4 4 5 5 5 5 5 4 3 3 2 2 2 2 3 3 3 3 3 3 3 2 2 2 2 2 2 2 3 3 3 3 3 2 2 3 3 2 2
5 5 4 4 5 5 5 5 5 5 5 5 5 6 6 5 5 5 4 4 3 3 3 3 3 3 3 3 3 3 4 4 4 4 3 4 4 3 4 4 4 4 3 3 3 3 3 3 2
6 6 5 5 5 6 6 6 6 5 4 5 5 6 6 6 6 5 5 4 4 4 4 3 4 3 3 3 3 4 4 4 4 4 5 5 5 5 5 5 4 4 4 4 3 3 3 3 3
6 6 6 6 6 6 6 6 6 5 5 5 6 6 6 7 6 5 5 4 4 4 5 4 4 4 4 4 4 4 5 5 4 4 5 5 5 5 5 5 6 6 5 4 4 3 3 4 3
7 7 7 7 7 6 6 6 6 6 6 5 6 6 7 7 7 6 6 5 4 4 5 4 4 5 5 5 5 5 5 5 5 5 5 5 5 5 5 5 5 5 5 5 4 4 5 4 3
6 7 7 8 8 7 6 6 7 6 6 6 6 7 7 8 7 7 6 6 5 4 5 5 5 5 6 5 5 5 5 5 5 5 5 5 5 5 5 5 5 6 5 5 5 5 5 5 3
7 7 7 8 8 8 8 7 8 7 7 7 7 7 7 8 8 7 6 6 6 5 5 5 5 6 6 6 6 6 6 6 6 5 6 5 5 5 5 5 6 6 6 6 6 5 5 5 4
8 8 8 9 8 9 9 9 8 8 7 8 7 7 6 7 8 7 7 7 7 6 6 6 6 6 6 6 6 6 6 6 6 5 5 6 6 6 6 6 6 6 6 6 6 6 5 5 5
9 9 9 9 9 9 9 9 8 8 8 7 8 7 7 7 8 8 8 8 8 7 7 7 6 6 6 6 6 6 6 6 6 6 6 6 7 7 7 7 7 7 7 7 7 6 6 6 6
9 9 8 8 8 9 9 8 9 9 9 9 9 8 8 8 8 8 9 9 8 8 7 7 7 7 7 7 7 7 7 7 7 7 7 7 7 7 7 7 7 7 7 7 7 7 7 7 7
7 7 7 7 7 8 8 8 9 9 9 9 10 9 8 8 9 9 10 10 9 9 8 8 8 8 7 7 7 7 7 7 7 7 7 7 7 8 8 7 8 8 8 7 7 7 7 7 7
6 6 6 7 7 8 8 8 8 9 9 9 10 9 8 8 9 10 10 10 10 10 9 9 9 8 8 8 8 8 7 7 7 7 7 7 8 8 8 8 8 7 7 7 7 7 7 7 8
6 6 5 6 6 7 8 8 7 8 9 9 9 9 9 9 9 10 10 10 10 11 10 10 10 10 10 10 10 9 8 7 8 8 8 8 8 8 8 7 7 6 6 7 7 7 7 7 8
6 6 6 6 7 7 8 8 8 8 8 8 8 8 9 9 9 10 10 10 11 11 11 11 11 11 10 10 10 10 9 9 8 8 8 8 8 8 8 6 7 7 7 7 7 7 7 7 7
7 7 7 7 7 7 8 8 8 9 9 9 9 8 8 9 10 10 10 10 10 11 11 11 11 11 11 10 10 10 10 10 9 8 8 8 8 8 6 6 6 7 6 7 7 7 6 6 6
8 8 7 8 7 8 8 9 9 9 9 9 9 9 9 9 10 10 10 11 11 11 11 11 12 12 11 10 10 10 10 9 9 9 9 9 8 7 6 6 6 6 6 6 6 6 6 6 6
9 8 8 8 8 8 9 8 8 9 9 9 9 9 9 10 10 11 12 12 12 12 12 12 12 11 11 11 10 10 10 10 10 9 9 9 8 8 7 7 7 7 7 6 6 6 6 6 6
8 9 9 9 9 9 9 9 9 10 10 9 10 11 11 11 11 11 12 12 13 12 12 13 12 11 11 11 11 11 11 11 11 10 10 10 9 9 8 8 8 8 7 6 6 7 6 6 6
9 9 10 10 10 10 10 11 11 11 10 11 11 12 12 11 11 11 12 12 12 12 12 12 13 12 11 11 11 11 11 11 12 11 10 10 10 9 9 8 8 8 7 7 7 6 6 6 6
10 10 10 10 10 11 11 11 10 10 11 11 12 12 13 13 13 12 12 12 12 12 11 12 12 12 11 11 11 11 11 11 12 11 11 11 9 9 9 8 8 7 7 7 7 7 7 7 7
10 10 10 10 11 11 11 11 11 10 11 12 12 13 13 13 13 13 13 13 13 12 12 12 13 12 12 12 12 12 12 12 12 11 11 10 10 9 8 8 8 8 7 8 8 8 8 8 8
11 11 11 11 11 12 11 12 12 12 11 12 12 13 13 13 13 13 13 13 13 13 13 12 12 12 12 12 13 12 12 13 12 11 10 10 10 9 8 8 8 8 8 8 9 9 9 9 9
12 12 12 12 12 12 12 12 12 12 12 12 12 13 13 13 13 13 13 13 13 13 14 14 13 12 12 13 13 13 12 12 12 11 10 10 9 9 9 9 9 8 8 8 9 9 9 9 9
13 13 13 13 13 13 14 13 13 13 13 13 13 13 14 14 14 15 14 14 14 14 14 14 14 14 13 13 13 13 13 13 12 12 11 11 10 10 10 9 9 9 9 9 9 10 10 10 10
15 14 14 14 14 14 14 14 13 13 14 14 14 14 15 15 15 15 15 15 15 15 15 15 15 14 14 14 14 14 14 13 13 13 13 12 12 12 11 11 10 10 10 10 11 11 11 11 11
15 16 15 15 15 14 14 14 13 14 14 14 14 15 15 15 15 15 16 16 16 15 15 15 15 15 15 14 14 14 14 15 15 14 13 13 13 13 13 12 12 11 12 12 12 12 12 12 12
17 16 16 16 16 15 15 15 15 15 15 15 15 15 15 15 16 16 15 15 15 15 15 15 15 15 15 15 15 14 14 15 15 14 14 14 14 14 14 13 13 13 13 13 13 13 13 13 13

GEFSSGP_500_meanwind_240.txt.gz
Wind_Speed
5 5 5 5 5 5 5 4 3 3 4 4 5 5 5 5 5 4 4 3 3 3 3 3 3 4 5 4 3 2 2 3 3 2 1 1 1 1 1 2 1 1 1 2 3 4 5 4 4
5 5 6 5 5 4 5 4 3 3 4 5 5 5 6 6 6 6 5 5 5 5 5 4 4 4 5 5 3 3 3 4 4 3 2 2 2 2 2 2 2 2 2 4 4 5 5 4 4
4 5 5 5 5 4 5 5 4 4 5 6 6 6 6 6 6 7 6 5 5 5 5 5 5 5 5 5 5 4 4 4 4 4 4 3 3 3 3 3 3 3 4 5 5 5 4 3 2
4 5 5 5 5 5 6 5 5 6 6 7 7 7 7 7 7 7 7 6 6 5 6 6 6 6 6 6 6 5 5 5 5 5 5 4 4 5 4 4 4 4 5 5 5 5 4 3 3
5 5 5 5 6 6 6 6 7 7 7 7 7 7 7 7 7 7 7 7 6 6 6 6 6 6 6 6 6 6 5 5 6 6 6 5 5 6 6 6 6 6 6 6 6 6 5 4 4
5 5 6 6 6 7 7 7 8 8 7 7 7 8 7 7 8 7 7 7 7 7 7 7 6 6 6 6 6 6 5 5 6 6 6 6 6 7 7 6 7 6 5 6 6 6 5 5 4
6 6 6 7 7 7 8 8 8 8 7 7 8 8 8 8 8 8 8 8 8 7 7 7 7 7 7 6 6 6 5 6 6 6 6 6 7 7 7 6 6 6 6 6 6 6 6 5 4
6 7 7 8 8 8 8 9 8 8 8 8 8 8 8 9 9 9 8 8 8 7 7 7 8 7 7 7 7 6 6 6 6 6 6 7 7 7 7 7 6 6 6 6 6 6 6 5 5
7 7 7 8 9 9 8 8 8 9 9 8 8 8 8 9 9 9 9 9 8 8 8 8 7 7 7 7 7 7 7 7 7 7 7 7 7 7 7 7 7 6 6 6 6 7 7 7 6
7 8 8 8 9 9 8 8 8 8 9 8 8 8 8 9 9 9 9 10 10 9 8 7 7 7 7 7 7 7 7 7 7 7 7 7 8 8 7 7 7 7 7 7 7 8 7 7 6
8 9 9 8 8 9 9 9 9 9 9 8 9 9 9 9 9 9 9 10 9 9 8 8 7 7 8 7 7 7 7 7 7 7 7 7 7 8 8 8 7 7 8 8 8 8 8 8 7
9 9 9 9 9 9 10 10 10 10 10 9 9 10 9 9 9 9 9 9 9 9 9 8 8 8 8 8 8 8 8 7 8 8 8 8 8 8 8 8 8 8 8 9 9 8 8 8 8
9 10 10 9 9 10 10 10 10 10 11 11 10 9 9 9 8 8 9 9 9 9 8 8 8 8 8 8 8 8 8 8 9 9 9 9 9 8 9 8 8 9 9 9 9 8 8 8 8
9 9 9 9 9 10 10 10 10 10 11 11 10 10 10 10 9 9 9 10 9 9 9 8 9 9 9 9 9 8 8 9 9 10 10 9 9 9 9 9 9 10 10 10 9 9 8 8 8
8 8 8 9 9 10 11 10 10 10 10 11 10 10 10 10 10 10 10 10 9 9 9 9 9 9 10 9 9 9 9 10 10 10 10 10 10 9 10 9 9 10 10 9 9 8 8 8 8
8 8 8 7 8 9 10 9 9 9 9 9 9 9 10 10 9 9 10 10 9 9 9 10 10 10 10 10 10 10 10 10 10 10 10 10 10 10 9 10 9 9 9 8 8 8 8 8 8
8 8 8 7 7 8 9 9 8 8 9 9 9 9 10 10 9 9 9 10 10 10 10 11 11 11 10 10 10 10 10 10 10 10 10 10 10 9 9 10 9 8 8 7 8 8 8 8 8
7 8 8 8 7 8 8 9 8 9 9 9 9 9 9 9 9 9 10 10 10 10 11 11 11 11 11 10 10 10 10 10 10 10 10 10 10 10 10 9 9 8 8 7 8 8 8 8 8
8 8 9 9 8 9 8 9 9 9 9 9 9 9 9 9 9 9 10 10 10 11 10 10 11 11 11 10 10 10 11 10 10 10 10 10 10 9 9 9 9 8 8 7 7 7 8 8 8
9 9 10 9 8 9 9 9 10 9 9 9 9 9 10 10 10 9 10 11 11 12 11 11 11 12 11 10 10 10 11 11 10 11 10 9 9 9 9 9 8 8 7 7 7 7 7 8 8
9 9 9 9 9 9 9 10 9 10 10 11 11 10 10 10 11 10 11 11 11 12 12 12 12 12 12 11 11 11 11 11 11 11 10 9 9 9 9 8 8 7 7 7 7 7 7 8 9
9 9 9 9 9 9 10 11 10 10 11 11 12 12 12 12 12 12 12 12 12 12 12 12 12 12 13 12 12 12 12 11 11 10 10 9 9 9 9 8 7 7 8 7 7 8 8 8 8
9 9 9 10 10 10 11 12 12 12 11 12 12 13 13 13 13 13 13 13 13 13 12 13 12 12 13 13 12 12 12 12 12 11 10 10 10 9 8 8 7 8 8 8 8 8 8 8 8
10 10 10 10 10 10 10 12 13 13 13 13 13 13 14 14 14 14 14 14 13 13 13 13 13 13 13 13 13 12 12 12 11 11 10 10 10 9 8 9 9 8 8 8 8 8 8 8 8
11 11 10 10 10 10 12 13 14 13 14 14 14 15 15 15 15 14 14 14 14 14 14 13 13 13 13 13 12 12 12 12 11 11 11 10 10 10 9 9 9 9 9 9 9 9 9 9 9
12 12 11 10 9 10 13 14 14 14 15 15 15 15 15 16 16 15 15 15 15 14 14 14 14 13 13 13 13 13 13 12 12 12 11 11 11 10 10 10 10 10 10 10 11 11 10 10 10
14 14 13 13 12 11 14 16 16 16 16 16 15 15 16 16 16 16 16 16 16 15 14 14 14 14 14 14 14 14 13 13 13 12 13 12 11 12 11 12 12 11 11 12 12 12 12 12 11
15 15 14 15 14 14 14 15 18 17 17 17 17 16 17 17 17 17 17 16 16 15 15 15 15 15 15 15 15 15 15 14 14 14 13 13 12 13 13 13 13 12 13 13 13 13 13 12 12
16 17 17 17 16 16 15 16 18 19 18 17 18 18 18 18 18 17 17 17 16 15 15 15 15 15 15 15 15 15 16 16 15 14 14 14 14 14 14 14 14 14 13 14 14 14 13 13 13
18 18 18 18 17 17 17 18 19 20 20 19 18 18 18 18 18 18 18 18 17 17 17 16 16 16 15 15 15 16 16 16 16 16 16 16 15 15 15 15 15 15 15 15 15 14 14 15 15

GEFSSGP_500_meanwind_246.txt.gz
Wind_Speed
5 6 6 5 6 5 4 4 4 3 3 3 2 2 2 2 2 2 3 2 2 3 3 3 3 4 4 3 3 3 3 3 3 3 3 3 3 3 3 4 4 4 4 4 5 6 5 5 4
4 4 5 6 5 5 4 3 2 3 3 3 3 2 2 2 3 3 4 3 3 3 3 3 3 4 4 4 4 4 4 5 5 4 4 3 3 3 4 4 4 5 5 5 5 5 4 4 4
4 3 4 4 4 5 4 3 2 3 3 3 3 3 3 3 3 3 4 4 4 4 3 3 4 4 4 5 5 5 5 5 5 6 5 4 4 4 4 5 5 5 5 5 5 4 4 4 4
4 4 4 4 4 5 5 4 3 3 3 3 3 3 3 4 4 4 4 5 5 4 4 3 4 4 5 5 5 5 5 6 5 5 5 5 5 5 5 5 5 5 5 5 5 5 4 4 5
5 5 5 5 5 4 5 4 4 4 4 4 3 3 4 4 4 4 6 6 6 5 4 4 5 5 5 5 6 5 5 5 5 5 5 6 6 6 6 6 7 7 6 6 6 6 5 5 5
6 5 5 5 5 5 5 4 4 4 4 4 4 4 4 5 5 5 6 7 6 6 5 5 5 5 5 6 6 6 6 6 5 5 6 6 6 6 6 7 7 7 7 6 6 6 6 6 6
6 6 5 5 5 5 5 5 5 6 5 5 5 5 5 6 5 5 6 6 6 6 5 6 6 6 6 6 6 6 6 6 5 5 6 6 6 7 7 6 6 6 7 6 6 6 6 6 6
6 6 6 6 6 6 6 6 5 6 6 5 6 6 6 6 6 6 5 6 6 6 6 6 7 7 7 7 7 6 6 5 5 5 6 6 6 6 7 6 6 6 6 6 6 6 6 6 6
7 7 6 6 6 6 7 7 6 6 5 6 6 6 5 5 5 5 5 5 6 6 6 6 6 7 7 6 7 6 6 6 6 6 6 6 6 7 7 6 6 6 6 6 6 6 6 6 7
7 7 7 7 7 7 7 7 6 5 5 6 6 6 6 6 5 5 6 6 6 7 7 7 7 7 7 6 6 7 7 7 7 7 7 7 7 7 7 7 7 7 7 6 6 7 7 7 7
8 8 7 7 7 6 6 7 6 6 6 6 6 6 7 7 6 6 6 7 7 7 7 7 6 6 7 7 7 7 7 7 7 7 7 7 7 7 7 7 7 7 7 7 7 8 8 8 7
9 8 7 7 7 6 6 7 7 6 7 7 7 7 7 7 7 7 8 8 8 8 8 8 7 7 7 6 7 7 7 6 7 7 7 7 7 7 7 7 8 8 8 7 7 8 8 8 8
8 7 7 6 6 6 6 6 7 7 7 7 7 7 7 7 8 8 8 8 8 8 8 7 7 7 7 7 7 7 7 6 6 6 7 6 7 7 7 7 8 8 8 8 8 8 8 8 8
8 8 7 7 8 8 7 7 7 6 7 7 7 8 8 8 8 8 8 8 7 7 7 7 7 7 7 7 7 7 6 6 6 6 7 7 7 7 7 7 8 8 9 9 9 9 9 9 9
8 8 7 7 7 8 8 8 7 6 7 7 8 8 8 8 8 8 7 7 7 7 6 7 7 7 7 6 6 6 6 7 7 6 6 7 7 7 7 8 8 9 9 8 9 9 9 9 9
8 8 7 7 7 7 7 7 6 7 6 7 7 7 7 8 7 7 7 8 8 7 6 7 6 7 6 6 6 6 7 7 7 7 7 7 7 7 8 8 9 8 8 9 9 9 9 8 8
8 8 7 7 6 6 6 6 6 6 6 7 7 7 7 7 7 7 7 8 8 7 7 7 7 7 7 6 6 6 7 7 7 7 7 7 7 7 8 8 8 8 8 8 8 8 8 8 8
7 7 7 6 6 6 6 5 5 6 6 6 5 5 5 6 6 7 6 6 7 7 7 7 7 7 7 7 6 6 7 7 7 7 7 7 7 8 8 8 8 8 7 7 7 7 7 8 8
7 7 6 5 6 6 6 6 5 6 6 5 6 6 6 6 7 7 6 6 7 7 8 8 8 7 7 8 8 8 8 8 7 7 7 7 7 8 8 8 7 7 7 7 7 7 7 8 8
7 6 6 5 5 6 6 6 6 5 5 6 6 6 6 7 7 7 7 7 7 7 8 8 8 8 8 8 9 9 9 8 7 7 7 7 8 7 7 7 7 7 7 8 8 7 7 8 8
8 7 6 6 5 5 6 6 6 6 6 6 6 7 6 7 7 7 7 7 8 8 8 9 9 9 9 9 10 10 9 9 8 8 8 8 8 7 7 8 8 7 7 7 7 7 7 7 7
9 8 7 7 7 7 7 6 6 6 6 6 6 6 7 8 8 8 8 9 9 9 9 9 9 9 10 10 9 9 9 8 9 9 8 8 8 8 8 8 8 8 8 7 7 7 7 8 8
9 9 9 9 9 8 8 8 6 7 6 7 7 7 7 8 9 9 9 9 10 10 10 10 10 10 10 9 10 10 10 10 9 9 9 9 9 9 9 9 8 8 9 9 8 8 8 8 9
10 10 10 10 10 9 9 9 6 6 7 8 7 8 8 9 9 10 10 11 10 10 11 10 10 11 10 10 10 11 11 10 10 10 10 10 10 10 10 10 9 9 9 9 9 9 9 10 10
11 11 12 12 11 10 10 10 7 7 7 7 8 8 9 9 9 10 11 11 12 11 11 10 11 11 11 12 12 11 11 12 11 11 11 11 10 10 11 11 10 10 10 10 10 10 10 11 11
11 12 12 13 13 12 12 10 9 8 7 8 8 9 10 10 10 11 12 12 12 12 11 11 12 12 12 13 13 13 13 13 13 12 12 12 11 12 12 12 12 12 11 11 12 11 11 12 12
12 12 12 13 13 13 12 12 11 9 9 9 10 10 11 11 11 12 12 12 12 12 12 12 13 13 13 14 13 13 13 14 14 13 13 13 13 13 13 13 13 12 13 13 13 13 12 12 13
13 13 14 15 15 15 14 13 12 11 10 10 10 11 11 12 13 13 13 13 13 13 14 14 14 14 15 15 14 14 14 14 14 14 14 14 14 15 15 14 14 13 13 13 13 14 13 13 13
14 14 15 16 16 16 16 14 13 13 12 12 12 12 13 13 14 14 14 14 14 15 15 15 15 15 15 15 15 14 14 15 15 15 15 15 15 15 16 16 15 15 15 14 14 14 14 14 14
16 15 16 17 16 17 17 15 15 15 15 14 13 13 14 14 14 14 14 15 15 16 16 16 16 16 16 16 16 16 15 15 16 16 16 16 16 16 16 16 16 16 16 16 16 15 14 15 15

GEFSSGP_500_meanwind_252.txt.gz
Wind_Speed
3 4 4 5 4 4 4 3 3 3 2 3 3 2 1 1 1 1 2 2 2 2 3 3 3 4 4 4 4 5 4 4 4 4 4 5 5 5 5 5 6 6 6 6 6 5 5 5 5
4 4 4 4 5 4 4 4 3 3 3 2 2 2 2 2 2 2 3 3 3 2 3 3 3 4 4 4 4 5 5 5 5 5 5 5 5 5 5 6 6 6 5 6 5 4 4 5 5
4 5 5 4 4 5 5 4 3 2 2 2 2 2 2 2 2 3 3 3 3 3 3 3 4 4 4 4 4 5 5 5 5 5 5 5 5 5 5 6 6 6 6 5 4 3 4 5 5
5 5 5 4 4 4 4 4 4 4 3 3 2 2 3 3 3 4 4 4 4 4 4 4 4 4 5 5 5 5 5 6 6 6 6 6 6 5 6 6 6 6 6 5 5 4 5 5 5
5 5 5 5 4 4 5 5 5 5 4 4 4 3 3 3 4 4 4 4 4 5 4 4 5 5 5 5 5 6 6 6 6 6 6 6 6 6 6 6 7 6 6 6 5 5 5 5 6
5 5 5 5 4 4 4 5 5 5 5 5 5 5 4 4 4 4 4 5 5 5 5 5 5 5 6 6 6 6 7 7 7 7 6 6 6 6 6 6 7 7 6 6 6 5 5 6 5
5 5 5 5 5 5 5 5 5 5 5 5 5 6 5 5 5 5 5 5 6 6 6 5 5 5 6 6 6 6 7 7 7 7 7 6 6 7 7 7 7 6 6 6 6 6 6 6 5
6 6 6 6 6 6 6 6 6 5 5 5 5 6 6 5 5 5 6 6 6 6 6 6 6 6 6 6 6 6 7 7 7 7 6 6 6 7 7 7 6 6 6 6 6 6 6 5 6
7 7 7 7 7 7 6 6 7 6 6 6 6 6 6 5 5 6 6 6 6 6 6 6 6 6 6 6 7 8 7 7 7 7 6 6 6 7 7 7 6 6 6 6 6 6 7 7 7
7 8 8 8 8 7 7 7 7 6 7 7 7 6 6 5 5 5 6 6 6 6 6 7 7 7 7 7 7 8 8 7 7 7 7 6 6 7 7 7 6 7 7 7 7 8 8 9 8
8 8 9 9 9 8 8 8 7 7 7 7 7 6 6 6 6 6 6 7 7 7 7 7 7 7 8 8 8 8 7 7 7 7 6 6 7 7 7 7 7 7 7 7 7 8 9 9 9
9 9 9 9 9 8 8 8 8 8 7 8 7 7 6 7 7 7 7 7 7 8 8 8 8 8 8 8 8 7 7 7 7 7 7 7 7 7 7 7 7 7 7 7 7 8 9 9 9
9 9 9 9 9 8 9 9 9 9 9 7 7 7 6 7 8 8 8 8 8 8 8 8 8 9 8 7 8 7 7 7 7 6 6 6 6 6 6 7 7 7 7 7 8 8 8 9 9
10 10 9 9 9 9 9 8 9 9 9 9 8 7 7 7 7 7 8 8 9 9 9 8 8 8 7 7 8 7 7 6 6 6 7 6 6 6 7 7 7 7 7 8 8 8 8 8 9
10 10 9 9 10 10 9 9 8 9 9 9 8 7 7 7 8 8 8 8 9 8 8 9 9 8 7 8 8 8 7 6 6 6 6 6 7 7 7 7 8 8 8 8 8 8 9 9 8
10 10 9 9 9 10 10 9 9 9 10 10 9 9 8 8 8 8 8 8 8 8 8 9 8 8 8 8 8 8 7 6 6 6 6 6 7 8 8 7 8 8 8 7 7 8 8 8 8
9 9 9 9 9 9 10 9 9 9 10 10 10 10 9 8 8 9 9 8 8 8 7 8 7 7 7 7 7 7 6 6 7 7 7 7 7 8 7 8 8 8 7 7 7 8 8 8 8
8 9 9 9 9 9 9 9 8 9 9 9 9 9 9 9 8 9 9 8 8 8 7 7 8 8 8 7 7 7 7 7 7 7 7 7 7 8 8 8 8 8 7 7 7 8 8 9 9
8 8 8 8 9 9 9 9 8 8 9 9 9 9 9 8 8 8 8 8 8 8 8 8 8 8 8 8 8 7 8 8 8 8 8 8 8 8 8 8 8 8 8 8 8 8 9 9 9
9 8 8 8 9 9 9 9 9 9 8 9 9 10 9 9 9 8 9 9 8 8 8 8 8 8 9 8 8 8 8 9 8 8 9 9 8 8 8 8 8 8 8 8 8 9 10 10 10
9 9 9 9 9 9 9 8 8 9 9 9 9 10 10 10 9 9 9 9 9 9 8 8 8 8 9 9 9 9 9 9 8 8 9 9 9 9 9 8 8 8 8 9 9 9 10 10 10
10 10 9 9 9 9 8 8 8 8 9 9 10 10 10 10 10 10 10 10 10 10 9 9 9 10 10 10 10 10 10 10 10 10 9 9 9 9 9 9 9 9 9 9 9 10 10 10 10
10 11 10 10 10 9 9 9 8 9 9 10 10 10 10 10 10 9 10 10 10 10 10 10 10 10 11 11 10 11 10 11 11 11 10 9 10 9 9 10 10 10 10 10 11 11 11 11 11
11 11 11 11 11 10 10 10 8 9 9 10 10 11 11 11 11 11 10 11 11 11 11 11 11 11 12 12 11 12 12 11 11 11 11 11 11 11 11 11 11 11 11 11 11 11 11 12 12
11 12 12 12 11 10 10 10 9 9 10 10 10 11 11 12 12 12 12 12 12 12 12 12 12 12 12 12 12 13 13 12 12 12 12 12 12 12 12 11 11 12 12 12 12 12 12 13 13
13 13 13 14 13 11 11 11 10 11 11 11 11 12 12 13 13 13 13 13 13 13 13 13 13 13 14 13 14 14 14 14 13 13 13 12 13 13 13 13 13 13 13 13 13 13 13 13 13
14 14 14 15 15 14 13 11 11 12 12 12 12 13 13 14 14 14 14 14 14 14 14 14 14 14 14 15 15 15 15 15 15 15 14 14 14 14 14 15 14 14 14 15 15 15 14 15 15
15 15 15 16 16 16 14 13 12 12 13 13 13 13 13 14 14 14 15 15 15 15 15 15 15 15 15 15 15 15 16 16 16 16 16 15 15 15 15 15 15 15 16 16 16 16 15 16 16
16 17 17 17 18 17 16 14 14 14 14 15 14 14 14 14 15 15 15 15 15 15 15 16 16 16 16 16 16 16 17 17 16 16 16 15 16 17 16 16 16 17 17 17 17 17 17 16 17
18 17 17 18 19 19 18 15 15 15 15 15 15 15 15 15 16 15 15 16 15 15 16 16 17 17 18 17 17 17 18 18 17 17 17 17 17 17 18 17 17 18 19 19 18 18 18 18 18

GEFSSGP_500_meanwind_258.txt.gz
Wind_Speed
4 4 4 3 3 3 3 3 3 3 3 3 4 3 2 2 2 3 2 2 2 1 1 1 1 1 1 1 1 2 2 3 2 2 2 2 3 3 3 3 3 3 3 4 5 4 4 3 3
4 4 4 4 3 3 3 3 3 3 3 3 3 3 3 3 3 3 3 3 2 2 2 2 2 2 2 2 2 3 3 3 3 3 3 3 3 3 3 3 3 4 4 4 4 3 4 4 4
4 4 4 4 4 4 4 3 3 2 3 3 3 3 3 3 3 3 3 3 3 3 3 3 2 3 3 3 3 3 3 4 4 4 4 4 4 4 3 3 3 4 4 4 3 3 4 4 5
4 4 4 5 5 5 4 4 3 3 3 4 4 3 3 3 3 4 4 4 4 3 3 4 4 4 4 4 4 4 5 5 5 5 5 5 5 4 4 4 4 4 5 5 4 4 4 5 5
4 4 5 5 5 5 5 5 4 3 3 4 5 4 4 4 4 4 5 5 5 4 4 4 5 5 5 5 5 5 6 6 6 5 5 5 5 5 5 5 5 4 5 5 5 5 5 5 5
4 5 5 5 5 5 5 5 5 5 4 5 5 5 5 5 5 5 5 5 5 5 4 5 5 6 5 5 6 6 7 6 6 6 6 6 6 6 6 6 5 5 5 5 6 6 6 5 5
4 5 5 6 6 6 6 6 5 5 5 5 6 6 6 6 6 6 6 6 6 6 6 6 6 6 6 6 7 7 7 6 6 6 6 6 5 6 6 7 6 6 6 6 6 6 6 6 6
5 6 6 6 7 7 7 6 6 6 6 6 6 7 6 7 7 7 7 7 7 6 7 7 7 7 7 7 7 7 6 6 5 5 6 6 6 6 6 7 7 6 6 6 5 6 6 6 6
6 7 7 7 8 7 7 7 6 6 7 7 7 7 7 7 7 7 7 7 7 7 7 7 7 8 8 7 7 6 6 6 5 6 6 6 6 6 6 6 6 6 6 6 5 5 5 6 6
6 7 7 8 8 8 7 7 7 6 6 7 7 8 8 8 8 8 8 8 7 7 8 8 8 9 8 8 7 7 6 6 7 6 7 6 6 6 6 6 6 5 5 6 6 6 6 7 7
7 7 7 8 8 8 8 8 8 8 8 7 7 8 8 8 8 8 9 9 8 8 8 9 8 8 8 8 8 8 8 8 8 8 8 7 7 7 6 6 5 5 6 6 6 6 6 7 7
8 8 8 8 8 9 9 8 8 8 8 8 8 8 8 9 9 8 8 9 9 9 9 9 9 9 9 9 9 9 9 8 7 7 7 6 6 7 6 6 6 6 6 7 7 7 7 7 7
8 8 8 8 8 8 9 9 8 9 9 10 10 9 9 9 8 8 8 8 9 9 9 9 9 9 9 9 9 9 9 8 7 6 6 6 6 6 6 6 6 6 6 7 7 7 7 7 7
8 8 8 8 8 9 9 9 9 9 10 10 10 10 10 10 9 9 9 9 9 9 10 9 9 9 9 8 8 9 8 8 7 7 6 6 6 6 6 6 6 6 6 7 7 8 8 8 8
8 8 9 9 9 9 9 9 9 9 9 9 9 9 9 9 9 10 10 10 9 10 10 10 10 9 8 8 9 8 8 7 7 7 6 6 6 6 6 6 6 6 6 7 8 8 8 8 8
9 9 9 9 9 9 9 9 9 9 9 9 9 9 9 9 10 10 10 10 10 10 10 10 10 9 8 8 8 8 8 8 7 7 6 6 6 6 6 6 6 7 7 7 8 7 8 8 8
8 8 8 9 9 9 9 9 10 10 10 9 9 10 10 10 10 10 10 10 10 10 10 10 9 9 8 8 8 8 9 9 8 8 8 7 7 6 6 6 7 7 7 7 8 7 7 8 8
9 8 8 8 8 9 9 10 10 11 10 10 10 10 11 10 10 10 10 10 10 10 10 9 8 8 8 8 8 8 8 9 9 9 9 8 8 7 7 7 7 7 7 7 8 8 8 8 8
9 8 8 8 8 9 9 9 9 9 9 9 9 9 9 10 10 10 10 11 10 10 10 9 9 8 8 8 8 8 8 9 10 10 9 9 9 9 9 8 8 8 8 8 8 8 8 8 8
8 8 9 9 8 8 8 8 9 8 8 8 9 9 9 9 9 10 10 10 10 10 10 10 9 9 9 9 9 9 9 9 9 9 9 9 10 9 9 9 9 9 9 9 8 8 9 9 9
8 8 9 9 8 9 8 8 8 8 9 9 9 9 9 9 9 9 10 10 10 10 10 10 9 9 10 10 10 10 10 11 11 10 9 10 10 10 10 10 10 10 10 9 9 9 9 9 9
9 9 9 9 9 9 9 8 9 9 9 9 9 9 9 9 9 9 10 10 11 11 10 10 10 10 10 11 11 10 11 11 11 11 10 10 10 11 11 11 11 10 10 10 9 9 9 9 9
10 10 9 9 9 9 9 9 9 9 9 9 9 9 9 9 9 10 10 10 11 11 11 11 11 11 11 11 11 11 12 12 12 12 12 11 11 11 11 10 10 10 10 9 9 9 10 10 10
10 10 10 10 10 10 9 10 9 9 9 10 10 9 9 10 10 10 11 11 11 12 12 11 11 11 11 12 12 12 13 13 13 13 13 12 12 12 11 11 11 11 11 10 10 10 10 10 10
11 10 10 10 10 11 10 10 10 9 9 10 10 10 10 11 11 10 11 12 12 12 12 12 12 12 12 12 12 13 13 13 13 13 12 12 13 12 12 12 12 12 11 11 11 11 11 11 12
11 12 11 12 12 11 11 11 11 10 10 10 11 11 11 11 12 12 12 12 12 13 13 14 14 14 14 13 13 13 13 13 13 13 13 13 13 13 12 13 13 13 12 12 12 12 13 13 13
13 13 13 14 14 13 12 11 11 11 11 11 12 12 12 12 13 13 13 13 13 14 14 14 14 14 14 15 14 14 14 14 15 14 14 14 15 14 14 14 14 14 14 14 14 14 15 15 15
14 14 14 14 14 14 13 12 12 13 13 13 13 13 13 14 14 14 15 14 14 15 15 15 16 15 16 16 16 16 15 16 16 16 15 15 15 15 15 15 15 15 15 15 15 15 15 15 15
15 15 15 16 16 15 15 15 14 14 14 15 15 15 15 15 15 15 15 16 16 16 16 16 16 16 16 16 16 16 16 16 17 17 16 16 16 16 16 16 16 16 15 15 15 16 16 16 15
16 16 16 16 16 16 17 17 15 15 15 16 16 16 16 16 16 16 16 17 17 18 17 17 17 17 17 17 18 18 17 17 17 17 17 17 17 17 17 16 16 16 16 16 16 17 16 16 16

GEFSSGP_500_meanwind_264.txt.gz
Wind_Speed
4 3 4 4 3 3 3 3 3 3 3 4 4 4 4 4 4 4 4 4 4 4 4 4 5 5 5 5 5 5 5 5 5 4 5 5 5 5 6 5 6 6 6 7 7 6 5 4 4
4 4 4 5 4 3 3 4 4 4 4 4 4 4 4 4 4 4 4 5 5 5 5 5 5 5 6 6 6 6 6 6 6 5 5 5 5 5 5 5 5 5 5 5 6 6 5 5 4
5 5 5 5 5 4 5 4 4 5 5 5 5 5 5 5 5 5 5 6 6 6 6 6 6 6 6 7 7 7 7 6 6 6 6 6 6 6 6 6 6 5 5 4 5 5 5 5 5
5 5 5 5 5 5 6 5 5 6 6 6 6 6 6 6 6 6 6 6 6 7 7 7 7 7 7 8 8 7 8 8 7 7 7 7 7 6 6 7 6 6 6 5 5 6 6 6 5
6 6 6 6 6 6 6 6 6 6 7 7 7 7 7 7 7 7 7 7 7 8 8 8 8 8 8 9 10 9 9 8 7 8 7 7 7 7 7 7 7 6 6 6 6 7 7 7 7
5 6 6 7 7 7 6 7 7 7 7 7 7 7 7 7 8 8 8 8 8 9 9 9 9 9 9 9 9 9 9 8 8 8 7 7 7 7 6 7 7 7 7 7 7 7 7 7 7
5 6 7 8 8 8 8 8 8 8 8 8 8 8 8 8 8 8 9 9 9 9 9 10 10 9 9 9 9 8 8 7 8 7 8 7 7 7 7 8 8 8 8 7 7 7 7 7 7
6 7 8 8 8 9 9 9 9 9 9 9 9 9 8 9 9 9 9 10 10 10 10 10 10 10 9 9 9 8 8 8 8 8 8 8 8 7 7 7 7 8 7 7 7 7 6 6 7
7 7 8 9 10 9 10 10 10 10 10 9 9 9 9 9 10 10 11 11 11 10 10 11 11 10 9 10 10 9 9 9 8 8 7 7 7 7 7 7 7 7 7 7 7 7 7 7 7
7 8 9 9 11 11 11 11 11 11 10 10 10 10 10 10 10 11 11 11 11 11 10 10 10 10 10 10 10 10 9 9 9 8 7 7 7 7 7 7 7 7 7 6 6 7 7 7 7
9 9 10 10 11 12 12 11 11 12 11 11 11 10 11 11 11 11 11 11 11 11 10 10 10 11 10 10 10 10 10 10 9 9 8 8 8 8 7 7 7 7 7 6 7 7 7 7 7
9 9 10 11 11 12 12 12 12 12 11 12 12 11 11 11 11 11 12 11 11 11 11 11 11 10 10 10 10 11 11 10 10 10 10 10 9 8 8 8 8 8 7 7 7 7 7 7 7
9 9 10 11 11 12 12 12 12 12 12 12 11 11 11 11 11 11 12 12 11 11 11 11 10 10 10 10 11 11 11 10 10 10 10 10 9 8 8 8 7 7 7 7 7 7 7 7 8
10 10 10 11 11 12 12 12 12 12 12 12 12 12 12 12 12 12 12 12 11 10 11 11 11 11 11 10 10 10 10 10 10 10 9 9 9 8 7 7 7 7 7 7 7 7 7 7 8
10 10 10 10 10 11 12 12 11 12 12 12 12 12 12 13 12 12 13 12 11 11 11 11 10 10 10 10 11 11 10 10 10 10 10 9 8 8 7 8 8 7 7 7 8 8 8 8 8
10 11 11 10 11 11 11 11 11 11 11 12 12 12 12 12 12 12 12 12 12 11 11 11 11 11 11 11 11 10 10 10 10 10 10 10 9 8 8 8 8 7 8 8 8 8 8 8 9
10 10 11 11 10 10 11 11 12 12 12 12 12 12 12 12 12 12 12 12 12 12 12 12 12 12 11 11 11 11 10 10 11 10 10 10 9 9 8 8 8 8 8 8 8 8 8 9 9
10 11 11 11 10 10 11 12 12 12 13 13 12 12 12 12 13 13 13 12 13 13 13 13 13 12 12 12 11 11 10 9 10 10 10 10 9 9 9 9 9 9 8 8 9 9 9 9 9
11 11 11 11 11 12 11 11 12 12 12 13 12 12 12 12 13 13 13 12 13 13 13 13 13 12 12 12 11 10 10 10 10 10 11 11 10 9 10 10 10 10 10 9 10 10 9 9 9
11 11 11 12 11 12 12 11 12 12 12 12 12 12 12 11 12 12 11 12 11 12 12 12 12 12 12 12 11 11 10 10 11 11 10 10 10 10 10 10 10 10 10 11 10 10 10 10 10
11 11 11 11 10 11 11 11 11 11 12 12 12 12 11 11 11 11 11 11 11 11 11 11 11 12 11 11 11 11 11 11 11 11 11 10 10 10 11 11 10 10 10 11 11 11 11 11 11
11 11 10 10 10 10 10 11 11 12 12 12 12 12 11 11 11 11 10 10 11 11 11 11 11 11 11 11 11 11 11 11 11 11 11 11 11 11 11 11 10 10 11 11 11 11 11 11 11
11 10 10 11 11 11 11 11 11 12 12 12 12 12 12 12 12 12 11 11 11 11 11 11 11 11 11 11 11 11 11 11 11 11 12 11 11 11 11 12 11 11 11 12 12 12 12 12 11
11 11 10 11 11 11 11 12 11 12 12 12 12 12 12 12 12 12 12 12 12 11 12 12 12 12 12 12 12 12 12 12 12 12 12 12 12 12 12 12 12 12 13 13 13 12 12 12 12
11 11 10 9 10 10 10 12 13 13 13 13 13 13 13 13 13 13 13 12 12 12 12 13 13 12 12 12 13 13 13 13 13 13 13 13 13 12 13 13 12 13 13 13 13 12 12 13 13
12 12 11 10 10 10 11 12 14 13 13 14 14 14 14 14 14 14 14 13 13 13 13 14 14 13 13 14 14 14 14 14 14 14 14 14 14 13 13 13 13 13 13 13 13 12 12 13 13
13 13 13 13 13 13 12 13 15 15 15 15 15 15 15 14 14 15 15 14 14 14 14 14 14 14 14 15 15 15 15 15 15 15 15 15 15 14 14 13 14 14 13 13 13 13 13 13 13
15 15 14 16 16 15 13 14 15 16 16 16 16 16 16 15 15 15 15 15 15 15 15 14 14 14 15 15 16 16 16 16 16 15 15 15 14 14 14 15 14 14 14 14 14 14 14 14 14
15 16 16 17 17 17 15 15 17 18 17 17 17 17 17 17 16 16 16 17 17 17 17 16 16 16 17 17 17 17 17 17 17 16 16 15 15 15 15 15 14 14 15 15 15 15 14 15 15
15 16 17 18 18 17 17 17 18 19 18 19 19 18 18 18 18 18 18 18 18 18 18 18 18 18 18 18 18 18 18 18 17 17 16 16 16 16 16 16 16 15 16 16 16 16 16 16 16

GEFSSGP_500_meanwind_270.txt.gz
Wind_Speed
5 5 4 4 3 3 4 3 2 1 0 0 1 2 2 2 2 3 3 3 3 4 4 4 4 4 5 5 5 5 5 6 7 7 7 7 7 7 7 7 8 9 8 7 7 7 8 7 7
5 5 5 4 4 4 4 3 2 3 2 1 2 3 3 3 3 3 3 4 4 4 5 5 5 5 6 6 6 6 6 6 7 7 7 7 8 8 8 8 8 8 8 8 8 8 7 7 7
5 5 5 5 5 5 4 3 3 3 3 3 3 4 4 4 4 4 4 4 5 5 6 6 6 6 6 7 7 7 7 6 7 7 7 7 8 9 9 7 6 6 6 7 8 8 8 8 7
5 5 6 6 6 5 5 4 4 3 4 4 4 4 5 4 4 4 4 5 6 6 6 6 7 7 7 7 7 7 7 7 6 6 7 7 8 8 8 7 6 6 6 7 8 9 9 8 8
5 5 6 6 7 6 5 5 4 4 5 5 5 5 5 5 5 5 5 5 6 6 6 7 8 8 8 8 7 7 7 7 7 7 7 7 7 8 8 8 7 7 7 7 8 8 8 8 7
6 5 6 7 8 7 6 5 5 5 5 5 5 6 6 5 5 6 6 6 6 6 7 7 8 8 8 8 8 8 7 7 7 7 7 7 7 7 8 8 7 7 7 7 7 7 7 7 7
7 6 7 8 8 7 7 6 5 5 5 5 5 6 5 6 5 6 6 7 7 7 8 8 8 8 8 8 8 8 8 8 7 7 8 8 7 7 7 8 7 7 7 7 7 7 7 7 7
7 7 7 7 8 8 7 7 7 7 6 6 6 6 5 6 6 6 7 7 7 8 9 9 9 8 8 8 8 8 9 8 8 8 8 8 8 8 8 7 7 7 7 7 7 7 6 6 6
8 8 7 7 7 8 8 8 7 7 7 7 7 7 6 6 7 7 8 8 9 9 10 10 9 9 8 8 9 8 9 9 9 8 8 8 8 8 8 7 7 7 6 6 6 6 6 6 6
8 8 8 8 8 8 8 8 8 8 8 8 8 8 7 7 7 8 8 8 9 10 10 10 10 9 9 9 9 9 9 9 9 8 8 8 8 8 8 7 7 7 6 6 6 6 6 5 6
9 9 8 8 8 8 8 8 8 8 8 8 8 8 8 8 8 8 8 9 9 10 10 10 10 10 10 9 9 9 9 9 9 9 9 9 8 9 8 8 7 7 6 6 6 6 6 5 6
9 9 9 9 8 9 9 9 9 9 9 9 8 8 8 9 9 9 9 10 10 10 10 10 9 9 10 8 8 9 10 9 9 10 10 10 9 9 9 8 7 7 7 6 6 6 5 5 6
9 9 9 9 9 9 9 9 9 9 9 9 9 9 9 9 10 11 10 11 10 10 9 9 9 9 9 9 9 10 10 10 10 10 10 10 9 8 8 7 7 7 7 6 6 6 5 6 6
10 9 9 10 9 9 9 9 9 8 9 9 10 10 10 10 10 11 11 11 10 9 9 8 8 8 8 9 9 10 10 10 10 10 9 9 8 7 7 7 7 7 7 7 6 6 6 7 6
10 9 9 10 10 9 9 9 8 8 8 9 10 10 10 10 10 10 10 10 10 9 8 8 8 9 9 9 9 10 10 10 9 8 8 8 7 7 7 7 7 7 7 7 7 7 7 7 7
10 9 8 9 9 9 9 9 8 8 8 8 9 9 9 10 9 9 10 10 9 9 9 9 9 9 9 9 9 9 9 9 8 8 8 8 8 7 7 7 7 6 6 6 7 7 8 8 8
10 9 9 9 9 9 9 8 9 9 8 8 9 9 9 9 9 9 9 10 10 10 10 10 10 10 9 9 9 9 9 9 8 8 8 8 7 8 7 7 7 7 7 7 8 8 8 8 8
10 10 10 9 9 9 9 9 9 9 9 8 9 9 9 10 10 10 10 10 10 10 11 10 10 10 9 9 10 10 10 9 8 8 8 8 8 8 7 7 8 7 7 8 8 8 8 8 8
11 11 11 10 9 9 9 9 9 9 8 8 9 9 9 10 10 10 9 9 10 10 11 11 10 9 9 9 9 9 9 9 9 9 9 8 8 8 7 7 7 8 7 8 8 9 9 9 9
12 11 11 10 10 9 9 9 9 10 9 9 9 9 9 9 9 9 9 9 9 9 10 10 9 9 9 10 10 9 10 10 10 10 9 9 9 8 8 8 8 8 8 8 9 9 10 10 9
11 11 10 10 10 10 10 9 9 9 9 8 8 8 8 8 8 8 8 8 8 8 8 8 8 8 9 9 9 9 9 9 9 9 9 9 9 9 9 9 9 9 9 10 10 10 10 10 10
10 10 10 11 10 10 10 9 9 9 9 8 8 8 8 7 7 7 7 7 8 8 8 8 8 8 8 8 8 9 9 9 9 10 10 10 9 10 10 10 10 10 10 10 10 11 11 11 11
11 11 11 10 10 10 10 10 8 8 9 8 8 7 7 7 7 7 8 8 8 9 9 9 9 8 8 8 9 9 9 9 9 10 10 10 10 10 10 10 11 11 11 10 11 11 11 11 10
12 12 12 11 11 11 10 10 9 8 8 8 7 7 7 7 8 8 8 8 9 9 9 9 9 9 9 9 9 9 9 9 10 10 10 9 9 9 10 10 11 11 11 11 12 11 10 10 10
12 13 13 12 12 11 11 11 10 9 9 8 8 8 8 8 9 9 9 9 9 9 9 10 10 10 10 10 10 10 10 10 10 10 10 10 10 10 10 10 10 11 11 11 11 10 10 10 10
12 13 13 13 13 12 13 13 11 10 10 10 10 9 9 9 10 10 9 10 10 11 11 11 11 11 11 12 12 11 12 11 11 11 10 11 11 11 11 11 11 11 11 11 11 10 10 10 10
12 13 14 15 15 15 14 14 13 12 12 11 11 11 10 10 11 11 11 11 11 11 12 12 12 12 12 12 12 12 12 12 12 12 12 12 12 12 12 12 11 11 11 12 12 11 12 12 12
12 13 14 15 16 16 15 15 13 12 12 12 12 12 11 11 11 11 12 12 12 12 12 12 12 12 12 12 12 13 13 13 13 13 13 13 13 12 12 12 12 12 12 13 13 13 13 13 13
13 14 15 16 17 16 16 15 14 13 13 14 13 13 13 13 13 13 13 14 14 14 14 14 14 13 13 12 13 13 13 13 14 13 14 14 14 14 13 13 13 14 14 14 14 14 14 14 15
14 15 15 16 17 17 18 16 15 15 15 15 15 14 14 15 14 14 15 15 15 15 15 15 15 15 15 15 14 14 14 14 14 14 15 15 15 16 16 15 15 15 15 15 15 15 16 16 15

GEFSSGP_500_meanwind_276.txt.gz
Wind_Speed
4 5 4 4 4 4 4 3 2 1 1 1 1 2 2 2 3 3 3 3 3 4 5 5 5 5 6 6 6 5 5 5 5 6 6 7 7 7 8 9 8 8 7 8 7 7 7 7 7
5 5 5 5 4 4 4 4 3 3 2 2 2 3 3 3 4 4 4 4 4 5 5 6 6 6 6 6 6 6 6 6 6 6 7 7 7 8 9 10 8 8 8 8 8 8 8 8 8
5 5 6 5 5 5 5 5 4 4 4 3 4 4 4 4 5 5 5 5 5 6 6 6 6 7 6 6 6 6 6 6 6 6 6 6 7 8 8 8 7 7 8 8 8 8 8 8 8
6 6 6 5 5 5 5 6 5 6 5 5 5 5 5 5 5 6 6 6 6 6 7 7 6 7 6 7 7 7 7 7 6 6 6 6 7 8 7 6 5 6 7 8 8 8 8 8 8
6 6 6 6 6 6 6 7 6 7 6 6 6 6 6 6 6 6 6 6 7 7 7 7 6 6 7 7 7 7 7 6 7 7 6 7 7 8 7 6 6 6 7 8 8 8 8 8 8
6 6 6 7 7 7 7 7 7 8 8 7 7 6 7 6 6 6 6 7 7 7 7 7 7 7 7 8 8 8 8 7 7 7 7 7 7 8 7 7 6 6 7 7 8 8 8 8 8
7 7 7 8 8 8 8 8 8 8 8 7 7 7 7 6 6 6 6 7 7 8 7 7 7 7 8 8 8 8 8 8 8 8 7 7 7 8 7 7 7 7 7 7 7 7 7 7 7
7 8 8 8 8 8 9 9 8 8 8 7 7 6 7 7 7 7 7 7 7 8 8 8 8 8 8 8 8 8 8 8 8 8 8 7 7 8 7 7 7 7 7 7 7 7 7 7 7
8 8 8 9 9 9 9 9 9 9 8 8 8 7 7 7 7 7 8 8 8 8 9 9 8 8 8 8 9 9 9 9 9 8 8 8 7 7 7 7 8 8 8 7 7 6 6 7 7
9 9 9 10 10 10 10 9 9 9 9 9 9 8 8 8 8 8 8 8 9 9 9 9 9 9 10 10 9 10 10 9 9 9 9 9 8 8 7 7 7 8 8 7 6 7 6 6 6
10 10 10 10 10 11 10 10 10 9 9 9 9 9 9 8 8 9 9 9 9 10 10 10 10 10 10 10 9 9 9 9 9 9 9 9 9 9 8 7 7 7 7 7 7 8 7 6 6
11 10 10 10 10 11 11 10 11 10 9 9 9 9 9 8 9 10 10 10 9 10 10 10 10 10 10 10 9 9 9 10 10 10 9 9 9 9 8 8 8 8 8 8 9 8 8 7 7
11 10 10 10 11 10 10 10 10 10 10 10 10 9 9 9 10 10 11 10 10 10 10 10 11 11 11 10 9 9 9 10 10 10 10 10 10 10 8 8 7 7 7 7 7 7 7 7 7
11 11 11 11 11 11 12 11 11 10 11 11 10 10 10 10 10 10 11 11 11 11 11 10 10 10 10 10 9 10 10 10 10 10 10 10 10 9 8 8 7 7 7 7 7 7 7 7 7
11 11 11 11 12 11 12 12 11 11 11 11 11 11 10 10 10 10 11 11 11 11 10 10 10 10 10 10 10 10 10 10 9 9 9 9 9 8 8 7 7 7 6 6 6 6 6 6 7
11 12 11 11 12 12 12 11 11 12 12 11 11 11 11 11 11 10 10 10 10 10 10 10 10 10 10 10 10 10 9 9 8 8 8 8 8 8 7 7 7 7 7 6 6 6 7 7 7
12 12 11 12 12 12 12 11 11 12 12 11 11 10 10 10 10 10 10 9 10 10 10 10 11 10 10 10 9 9 8 8 7 8 8 7 8 8 7 8 8 7 7 7 7 8 7 7 8
12 12 12 13 13 13 12 12 12 12 12 12 12 11 11 11 11 10 10 10 10 10 11 10 10 10 10 9 9 8 8 7 8 7 7 8 8 8 7 7 7 7 7 8 8 9 8 8 9
12 13 13 13 13 13 12 12 12 12 11 11 11 11 11 11 11 10 9 9 10 10 10 10 10 10 10 9 9 9 8 8 8 8 8 8 8 8 8 8 7 8 8 9 9 9 9 9 9
13 13 13 13 13 12 12 12 12 12 11 11 11 11 11 11 10 10 9 9 9 10 10 10 10 10 9 9 9 8 8 8 8 9 9 9 9 9 9 9 8 8 9 9 10 9 9 9 10
13 13 13 13 13 13 13 12 12 11 11 11 11 12 11 10 10 11 10 10 10 10 10 10 10 10 9 9 8 9 8 9 9 9 8 9 9 9 10 9 9 9 9 10 10 10 10 10 11
13 13 13 13 12 12 12 12 11 11 11 11 11 12 11 10 10 11 11 11 10 10 10 9 9 9 8 8 8 9 9 9 9 9 9 9 9 9 9 10 10 10 10 10 10 11 11 11 11
13 14 14 14 13 13 12 12 11 11 11 11 11 11 11 11 11 11 11 11 10 10 10 10 10 9 9 9 9 8 9 9 9 9 10 10 10 9 9 10 10 10 10 10 11 11 11 12 12
13 14 14 15 14 14 13 13 11 10 11 11 11 11 11 12 12 12 11 11 11 11 11 11 10 10 10 10 10 10 9 10 10 10 10 10 10 10 11 11 11 11 11 11 11 11 11 12 12
14 14 15 15 15 15 14 14 12 11 11 12 12 12 12 12 12 13 12 12 12 11 11 11 11 10 11 11 11 10 11 11 11 11 10 10 11 11 11 12 12 12 11 11 12 12 12 12 12
14 14 14 15 14 14 14 15 13 13 13 13 13 13 13 13 13 13 13 13 12 11 12 12 12 12 12 11 11 12 12 12 12 12 12 11 12 11 11 11 12 12 12 11 12 12 12 12 12
14 15 15 16 16 15 15 15 14 14 14 14 15 15 15 14 13 12 13 13 12 11 12 12 12 12 13 12 12 13 13 13 13 13 13 13 12 12 11 12 12 12 12 12 13 13 13 13 13
15 15 16 17 17 17 16 15 14 14 14 15 15 15 15 14 14 13 13 13 12 12 12 12 13 13 13 13 13 13 13 13 14 14 14 14 14 13 14 13 13 13 13 13 14 14 13 13 13
16 16 16 17 17 17 17 15 15 15 14 14 15 15 15 15 15 16 15 14 14 13 14 14 14 14 14 14 14 14 14 13 13 14 14 15 15 15 15 15 15 15 15 15 15 15 15 15 15
16 16 17 17 17 17 17 16 16 16 15 15 16 16 16 16 16 17 16 16 16 15 16 16 16 16 16 17 17 16 16 15 15 15 16 16 16 16 16 17 17 17 17 17 17 17 17 17 17